x

Niagara Coast Guard Station, Ny (ygnn6) Weather Station

9:50pm - Mon 20th Oct 2014 All times are CDT. -5 hours from GMT.

  • Wind
    7mph, 9mph gusts
  • Air Temp 54°f
  • Sea Pressure 1009.1mb
  • Niagara Coast Guard Station, Ny
  • Niagara Coast Guard Station, Ny

More Historic Weather Station data

Upgrade to MSW Pro to gain access to the past 30 days of data for over 8000 Wavebouys and Weather Stations around the globe.

Join Pro

Comparision Forecast

View Surf forecast
   
Mon 10/20 9:50pm 7 9 mph 1009.1mb 54f
9:30pm 6 9 mph 1009.1mb 54f
9:20pm 7 10 mph 1009.1mb 54f
9:10pm 5 7 mph 1009.5mb 54f
9:00pm 3 6 mph 1009.5mb 54f
8:50pm 3 7 mph 1009.5mb 54f
8:40pm 6 10 mph 1009.5mb 54f
8:30pm 6 8 mph 1009.5mb 54f
8:20pm 7 10 mph 1009.5mb 54f
8:10pm 7 10 mph 1009.5mb 54f
8:00pm 7 11 mph 1009.5mb 54f
7:50pm 7 14 mph 1009.5mb 55f
7:40pm 10 15 mph 1009.5mb 55f
7:30pm 8 14 mph 1009.5mb 56f
7:20pm 10 16 mph 1009.5mb 57f
7:10pm 8 14 mph 1009.1mb 57f
7:00pm 8 9 mph 1009.1mb 57f
6:50pm 7 9 mph 1009.1mb 57f
6:40pm 6 9 mph 1009.1mb 57f
6:30pm 6 9 mph 1009.1mb 57f
6:20pm 7 8 mph 1009.1mb 57f
6:10pm 7 9 mph 1009.1mb 57f
6:00pm 7 10 mph 1009.1mb 57f
5:50pm 8 10 mph 1009.1mb 57f
5:40pm 8 10 mph 1009.1mb 57f
5:30pm 9 11 mph 1009.1mb 57f
5:20pm 8 10 mph 1009.1mb 57f
5:10pm 8 11 mph 1009.1mb 57f
5:00pm 8 13 mph 1009.1mb 57f
4:50pm 8 14 mph 1009.1mb 57f
4:40pm 9 16 mph 1009.1mb 57f
4:30pm 10 15 mph 1009.1mb 57f
4:10pm 10 17 mph 1009.1mb 58f
4:00pm 11 14 mph 1008.8mb 57f
3:50pm 10 15 mph 1008.8mb 57f
3:40pm 8 16 mph 1009.1mb 57f
3:30pm 10 14 mph 1009.1mb 57f
3:20pm 10 14 mph 1009.1mb 57f
3:10pm 9 14 mph 1009.1mb 57f
3:00pm 10 13 mph 1009.1mb 57f
2:50pm 9 13 mph 1009.1mb 57f
2:40pm 9 14 mph 1009.5mb 57f
2:30pm 8 16 mph 1009.5mb 57f
2:20pm 10 17 mph 1009.5mb 57f
2:10pm 10 21 mph 1009.1mb 57f
2:00pm 15 21 mph 1009.1mb 57f
1:50pm 9 17 mph 1009.5mb 57f
1:40pm 11 20 mph 1009.5mb 56f
1:30pm 15 22 mph 1009.5mb 56f
1:20pm 14 18 mph 1009.5mb 57f
1:10pm 13 16 mph 1009.8mb 56f
1:00pm 9 16 mph 1010.2mb 56f
12:50pm 13 18 mph 1010.2mb 56f
12:40pm 14 18 mph 1010.2mb 56f
12:30pm 10 18 mph 1010.2mb 56f
12:20pm 13 17 mph 1010.2mb 56f
12:10pm 13 18 mph 1010.2mb 57f
12:00pm 15 21 mph 1010.2mb 57f
11:50am 10 16 mph 1010.2mb 56f
11:40am 9 17 mph 1010.5mb 56f
11:30am 10 16 mph 1010.8mb 55f
11:20am 9 14 mph 1010.8mb 55f
11:10am 13 18 mph 1010.8mb 55f
10:50am 11 17 mph 1011.2mb 55f
10:40am 10 20 mph 1011.2mb 55f
10:30am 10 17 mph 1011.2mb 55f
10:20am 10 13 mph 1011.5mb 55f
10:10am 13 17 mph 1011.5mb 55f
10:00am 9 15 mph 1011.9mb 55f
9:50am 8 11 mph 1011.9mb 54f
9:40am 8 13 mph 1011.9mb 53f
9:30am 7 9 mph 1011.9mb 53f
9:20am 8 9 mph 1011.9mb 53f
9:10am 7 8 mph 1011.9mb 52f
9:00am 7 10 mph 1011.9mb 52f
8:50am 8 10 mph 1011.9mb 52f
8:40am 8 10 mph 1012.2mb 52f
8:30am 8 10 mph 1012.2mb 51f
8:20am 6 10 mph 1012.2mb 52f
8:10am 8 10 mph 1012.2mb 51f
8:00am 8 10 mph 1012.2mb 51f
7:50am 7 9 mph 1012.5mb 51f
7:40am 7 9 mph 1012.5mb 50f
7:30am 8 10 mph 1012.5mb 49f
7:20am 8 9 mph 1012.5mb 49f
7:10am 8 9 mph 1012.5mb 48f
7:00am 7 8 mph 1012.5mb 48f
6:50am 7 8 mph 1012.5mb 48f
6:40am 8 9 mph 1012.5mb 48f
6:30am 7 9 mph 1012.5mb 48f
6:20am 7 10 mph 1012.5mb 48f
6:10am 9 11 mph 1012.5mb 48f
6:00am 10 13 mph 1012.5mb 48f
5:50am 9 11 mph 1012.5mb 48f
5:30am 10 11 mph 1012.9mb 48f
5:20am 7 8 mph 1012.9mb 48f
5:10am 7 8 mph 1013.2mb 49f
5:00am 6 8 mph 1013.2mb 49f
4:50am 6 7 mph 1013.2mb 49f
4:40am 6 8 mph 1013.2mb 48f
4:30am 7 8 mph 1013.2mb 48f
4:20am 6 7 mph 1013.5mb 48f
4:10am 7 8 mph 1013.5mb 47f
4:00am 7 8 mph 1013.9mb 47f
3:50am 6 8 mph 1014.2mb 47f
3:40am 7 9 mph 1013.9mb 47f
3:30am 8 9 mph 1014.2mb 47f
3:20am 7 10 mph 1014.2mb 46f
3:10am 8 10 mph 1014.2mb 46f
3:00am 7 8 mph 1014.6mb 46f
2:50am 6 7 mph 1014.6mb 46f
2:40am 5 7 mph 1014.9mb 46f
2:30am 6 7 mph 1014.9mb 46f
2:20am 5 7 mph 1014.9mb 46f
2:10am 5 6 mph 1014.9mb 46f
2:00am 3 6 mph 1015.2mb 46f
1:50am 5 6 mph 1015.2mb 46f
1:40am 3 6 mph 1015.2mb 46f
1:30am 3 6 mph 1015.2mb 46f
1:20am 5 6 mph 1015.2mb 46f
1:10am 5 6 mph 1015.6mb 46f
1:00am 5 7 mph 1015.6mb 46f
12:50am 5 6 mph 1015.6mb 46f
12:40am 5 7 mph 1015.2mb 45f
12:30am 6 8 mph 1015.2mb 45f
12:10am 5 7 mph 1015.2mb 45f
12:00am 5 6 mph 1015.6mb 44f
Sun 10/19 11:00pm 5 7 mph 1015.9mb 44f
10:00pm 5 7 mph 1015.9mb 44f
9:50pm 5 7 mph 1016.3mb 44f
9:40pm 6 8 mph 1016.3mb 44f
9:30pm 6 7 mph 1016.3mb 44f
9:20pm 6 8 mph 1016.3mb 44f
9:10pm 6 8 mph 1016.6mb 44f
9:00pm 5 8 mph 1016.6mb 44f
8:50pm 5 7 mph 1016.6mb 45f
8:40pm 5 8 mph 1016.6mb 45f
8:30pm 6 8 mph 1016.6mb 45f
8:20pm 5 8 mph 1016.9mb 45f
8:10pm 6 9 mph 1016.9mb 45f
8:00pm 6 8 mph 1016.9mb 46f
7:50pm 6 10 mph 1017.3mb 45f
7:40pm 6 11 mph 1017.3mb 45f
7:30pm 6 9 mph 1017.3mb 45f
7:20pm 5 9 mph 1017.3mb 45f
7:10pm 6 9 mph 1017.3mb 45f
6:50pm 6 9 mph 1017.3mb 46f
6:40pm 6 9 mph 1017.3mb 46f
6:30pm 6 7 mph 1017.3mb 47f
6:20pm 6 7 mph 1017.3mb 47f
6:10pm 6 7 mph 1017.3mb 47f
6:00pm 6 7 mph 1017.3mb 47f
5:50pm 6
mph
1017.6mb 47f
5:40pm 5
mph
1017.6mb 47f
5:30pm 3 5 mph 1017.6mb 47f
5:20pm 3 5 mph 1017.6mb 47f
5:10pm 3 5 mph 1017.6mb 47f
5:00pm 3 6 mph 1017.9mb 48f
4:50pm 5 7 mph 1017.9mb 48f
4:40pm 3 7 mph 1017.9mb 48f
4:30pm 5 9 mph 1018.3mb 48f
4:20pm 6 9 mph 1017.9mb 48f
4:10pm 6 11 mph 1018.3mb 48f
4:00pm 8 10 mph 1018.3mb 48f
3:50pm 10 14 mph 1018.3mb 48f
3:40pm 7 13 mph 1018.3mb 48f
3:30pm 9 16 mph 1018.3mb 48f
3:20pm 13 16 mph 1018.6mb 48f
3:10pm 13 18 mph 1018.6mb 47f
3:00pm 16 18 mph 1018.6mb 47f
2:50pm 14 17 mph 1018.6mb 47f
2:40pm 14 20 mph 1019mb 47f
2:30pm 16 20 mph 1019mb 47f
2:20pm 15 21 mph 1019mb 47f
2:10pm 15 22 mph 1019mb 46f
2:00pm 15 22 mph 1019mb 46f
1:50pm 15 17 mph 1019mb 46f
1:30pm 11 18 mph 1019.3mb 46f
1:20pm 10 20 mph 1019.3mb 45f
1:10pm 11 17 mph 1019.3mb 45f
1:00pm 15 20 mph 1019.3mb 45f
12:50pm 11 15 mph 1019.3mb 44f
12:40pm 8 14 mph 1019.6mb 44f
12:30pm 10 15 mph 1019.6mb 44f
12:20pm 14 17 mph 1020mb 44f
12:10pm 10 14 mph 1019.6mb 44f
12:00pm 10 16 mph 1020mb 44f
11:50am 9 15 mph 1020mb 43f
11:40am 11 15 mph 1020mb 43f
11:30am 9 16 mph 1020.3mb 44f
11:20am 14 18 mph 1020.3mb 43f
11:10am 15 20 mph 1020.3mb 43f
11:00am 13 17 mph 1020.3mb 43f
10:50am 15 20 mph 1020.3mb 43f
10:40am 11 17 mph 1020.3mb 43f
10:30am 13 16 mph 1020.3mb 43f
10:20am 14 17 mph 1020.3mb 43f
10:10am 13 15 mph 1020.3mb 43f
10:00am 9 17 mph 1020.3mb 42f
9:50am 9 13 mph 1020.3mb 43f
9:40am 8 16 mph 1020.3mb 42f
9:30am 9 17 mph 1020.3mb 42f
9:20am 9 13 mph 1020.3mb 42f
9:10am 8 14 mph 1020.3mb 42f
9:00am 8 13 mph 1020.3mb 42f
8:50am 10 15 mph 1020mb 42f
8:40am 11 14 mph 1020mb 42f
8:30am 11 15 mph 1020mb 42f
8:10am 14 20 mph 1020mb 42f
8:00am 16 18 mph 1019.6mb 42f
7:50am 13 22 mph 1019.6mb 42f
7:40am 14 20 mph 1019.6mb 42f
7:30am 11 23 mph 1019.6mb 42f
7:20am 16 25 mph 1019.6mb 42f
7:10am 21 26 mph 1019.3mb 42f
7:00am 18 28 mph 1019.3mb 42f
6:50am 17 25 mph 1019mb 42f
6:40am 18 24 mph 1019mb 42f
6:30am 21 28 mph 1019mb 42f
6:20am 21 24 mph 1018.6mb 43f
6:10am 15 23 mph 1018.6mb 42f
6:00am 20 28 mph 1018.6mb 43f
5:50am 18 24 mph 1018.6mb 43f
5:40am 17 28 mph 1018.6mb 43f
5:30am 22 25 mph 1018.6mb 43f
5:20am 20 24 mph 1018.3mb 43f
5:10am 20 29 mph 1018.3mb 43f
5:00am 18 28 mph 1017.9mb 43f
4:50am 21 28 mph 1017.9mb 43f
4:40am 20 25 mph 1017.6mb 43f
4:30am 21 29 mph 1017.6mb 43f
4:20am 22 28 mph 1017.6mb 43f
4:10am 24 29 mph 1017.3mb 44f
4:00am 22 28 mph 1017.3mb 43f
3:50am 18 23 mph 1017.3mb 44f
3:40am 13 28 mph 1017.3mb 44f
3:30am 16 22 mph 1016.9mb 44f
3:20am 9 20 mph 1016.9mb 43f
3:10am 13 23 mph 1016.9mb 43f
2:50am 18 22 mph 1016.6mb 44f
2:40am 20 24 mph 1016.6mb 44f
2:30am 21 24 mph 1016.6mb 44f
2:20am 16 26 mph 1016.6mb 44f
2:10am 20 24 mph 1016.3mb 44f
2:00am 20 24 mph 1016.3mb 44f
1:50am 22 26 mph 1016.3mb 44f
1:40am 21 26 mph 1016.3mb 44f
1:30am 21 26 mph 1016.3mb 44f
1:20am 20 25 mph 1015.9mb 44f
1:10am 23 26 mph 1015.9mb 44f
1:00am 18 26 mph 1015.9mb 44f
12:50am 20 26 mph 1015.9mb 45f
12:40am 22 25 mph 1015.9mb 45f
12:30am 20 25 mph 1015.9mb 45f
12:20am 24 28 mph 1015.6mb 46f
12:10am 23 30 mph 1015.6mb 45f
12:00am 22 33 mph 1015.6mb 46f
Sat 10/18 11:50pm 23 29 mph 1015.2mb 46f
11:40pm 23 29 mph 1015.2mb 46f
11:30pm 22 29 mph 1014.9mb 46f
11:20pm 21 26 mph 1014.9mb 46f
11:10pm 20 25 mph 1014.9mb 46f
11:00pm 21 26 mph 1014.9mb 46f
10:50pm 21 26 mph 1014.9mb 46f
10:40pm 23 25 mph 1014.9mb 46f
10:30pm 20 25 mph 1014.9mb 46f
10:20pm 17 25 mph 1014.9mb 47f
10:10pm 18 24 mph 1014.6mb 47f
10:00pm 16 28 mph 1014.6mb 46f
9:50pm 20 24 mph 1014.6mb 47f
9:30pm 18 26 mph 1014.6mb 47f
9:20pm 23 26 mph 1014.2mb 47f
9:10pm 23 29 mph 1014.2mb 47f
9:00pm 22 25 mph 1013.9mb 47f
8:50pm 22 26 mph 1013.9mb 48f
8:40pm 22 29 mph 1013.5mb 48f
8:30pm 23 29 mph 1013.5mb 48f
8:20pm 23 31 mph 1013.5mb 48f
8:10pm 24 32 mph 1013.2mb 48f
8:00pm 26 31 mph 1012.9mb 48f
7:50pm 23 29 mph 1012.9mb 48f
7:40pm 23 31 mph 1012.5mb 49f
7:30pm 28 32 mph 1012.5mb 49f
7:20pm 23 29 mph 1012.5mb 49f
7:10pm 25 32 mph 1012.2mb 49f
7:00pm 28 31 mph 1011.9mb 49f
6:50pm 28 33 mph 1011.9mb 49f
6:40pm 25 32 mph 1011.9mb 49f
6:30pm 28 32 mph 1011.9mb 49f
6:20pm 26 31 mph 1011.5mb 50f
6:10pm 26 32 mph 1011.5mb 50f
6:00pm 26 30 mph 1011.2mb 50f
5:50pm 23 30 mph 1011.2mb 50f
5:40pm 24 29 mph 1010.8mb 50f
5:30pm 24 28 mph 1010.5mb 50f
5:20pm 24 28 mph 1010.5mb 50f
5:10pm 21 26 mph 1010.2mb 50f
5:00pm 23 29 mph 1010.2mb 50f
4:50pm 23 28 mph 1009.8mb 50f
4:40pm 20 26 mph 1009.8mb 50f
4:30pm 18 23 mph 1009.8mb 50f
4:20pm 21 24 mph 1009.5mb 50f
4:10pm 20 25 mph 1009.5mb 49f
4:00pm 20 28 mph 1009.1mb 50f
3:50pm 26 28 mph 1008.8mb 50f
3:40pm 25 30 mph 1008.8mb 50f
3:30pm 25 29 mph 1008.8mb 50f
3:20pm 25 29 mph 1008.8mb 50f
3:10pm 24 30 mph 1008.5mb 50f
3:00pm 25 29 mph 1008.5mb 50f
2:50pm 24 29 mph 1008.1mb 51f
2:40pm 23 28 mph 1008.1mb 50f
2:30pm 25 31 mph 1007.8mb 51f
2:20pm 24 31 mph 1007.8mb 51f
2:10pm 25 30 mph 1007.5mb 51f
2:00pm 23 31 mph 1007.1mb 52f
1:50pm 26 33 mph 1007.1mb 52f
1:40pm 26 33 mph 1006.8mb 52f
1:30pm 26 32 mph 1006.8mb 52f
1:20pm 28 33 mph 1006.8mb 52f
1:10pm 30 33 mph 1006.4mb 53f
1:00pm 26 30 mph 1006.4mb 53f
12:50pm 22 26 mph 1006.1mb 53f
12:40pm 22 25 mph 1006.1mb 53f
12:30pm 22 26 mph 1006.1mb 53f
12:20pm 21 26 mph 1005.8mb 53f
12:10pm 22 26 mph 1005.8mb 53f
12:00pm 22 24 mph 1005.8mb 53f
11:50am 21 26 mph 1005.8mb 53f
11:40am 24 28 mph 1005.4mb 53f
11:30am 23 26 mph 1005.4mb 53f
11:20am 23 26 mph 1005.1mb 53f
11:10am 22 28 mph 1005.1mb 53f
11:00am 24 28 mph 1005.1mb 53f
10:50am 24 28 mph 1004.7mb 53f
10:40am 21 30 mph 1004.4mb 53f
10:30am 23 25 mph 1004.4mb 54f
10:20am 21 23 mph 1004.1mb 53f
10:10am 21 25 mph 1004.1mb 53f
10:00am 16 22 mph 1004.1mb 52f
9:50am 17 23 mph 1004.1mb 52f
9:40am 18 25 mph 1004.1mb 52f
9:30am 16 20 mph 1003.7mb 51f
9:20am 14 22 mph 1003.7mb 51f
9:10am 18 22 mph 1003.4mb 51f
9:00am 17 24 mph 1003.4mb 51f
8:50am 18 24 mph 1003mb 51f
8:40am 18 23 mph 1003mb 51f
8:30am 20 26 mph 1003mb 50f
8:20am 15 22 mph 1003mb 50f
8:10am 20 26 mph 1002.7mb 51f
8:00am 10 17 mph 1002.7mb 50f
7:50am 14 20 mph 1002.4mb 51f
7:40am 11 20 mph 1002.4mb 51f
7:30am 13 20 mph 1002.4mb 51f
7:20am 11 16 mph 1002mb 51f
7:10am 10 15 mph 1002mb 51f
7:00am 10 17 mph 1001.7mb 51f
6:50am 11 17 mph 1001.7mb 52f
6:40am 14 21 mph 1001.7mb 52f
6:30am 15 23 mph 1001.4mb 52f
6:20am 13 22 mph 1001.4mb 52f
6:10am 15 23 mph 1001mb 53f
6:00am 18 25 mph 1000.7mb 53f
5:50am 15 21 mph 1000.7mb 53f
5:40am 13 17 mph 1000.7mb 53f
5:30am 13 20 mph 1000.7mb 53f
5:20am 13 17 mph 1000.7mb 53f
5:10am 13 16 mph 1000.3mb 54f
5:00am 11 18 mph 1000.3mb 54f
4:50am 15 18 mph 1000mb 55f
4:40am 11 18 mph 1000mb 55f
4:30am 15 20 mph 1000mb 55f
4:20am 13 17 mph 999.7mb 56f
4:10am 13 18 mph 1000mb 56f
4:00am 11 20 mph 999.7mb 56f
3:50am 14 20 mph 999.7mb 56f
3:40am 13 17 mph 999.7mb 57f
3:30am 13 21 mph 999.7mb 57f
3:20am 14 21 mph 999.3mb 57f
3:10am 10 18 mph 999.3mb 57f
3:00am 10 16 mph 999.3mb 57f
2:50am 13 18 mph 999.3mb 57f
2:40am 11 18 mph 999.3mb 58f
2:30am 13 21 mph 999.3mb 58f
2:20am 14 20 mph 999.3mb 58f
2:10am 11 18 mph 999.3mb 58f
2:00am 10 18 mph 999.3mb 58f
1:50am 11 18 mph 999.3mb 58f
1:40am 8 14 mph 999.7mb 58f
1:30am 9 15 mph 999.7mb 58f
1:20am 9 14 mph 999.7mb 59f
1:10am 10 15 mph 999.3mb 59f
1:00am 13 16 mph 999.3mb 59f
12:50am 11 20 mph 999.3mb 59f
12:40am 14 18 mph 999.3mb 59f
12:30am 17 21 mph 999.3mb 59f
12:20am 9 16 mph 999.3mb 60f
12:10am 11 18 mph 999.3mb 60f
12:00am 13 18 mph 999.3mb 60f
Fri 10/17 11:50pm 16 21 mph 999.3mb 61f
11:40pm 11 22 mph 999.3mb 60f
11:30pm 16 24 mph 999mb 61f
11:20pm 16 22 mph 999mb 61f
11:10pm 15 18 mph 999mb 62f
11:00pm 11 17 mph 999mb 62f
10:50pm 10 14 mph 999mb 62f
10:40pm 11 20 mph 999mb 62f
10:30pm 10 17 mph 999mb 63f
10:20pm 13 21 mph 999mb 63f
10:10pm 14 20 mph 999mb 63f
10:00pm 9 15 mph 999mb 62f
9:50pm 9 14 mph 999mb 62f
9:40pm 9 18 mph 999mb 62f
9:30pm 8 13 mph 999mb 62f
9:20pm 8 15 mph 999mb 62f
9:10pm 9 14 mph 999mb 62f
9:00pm 7 11 mph 999mb 62f
8:50pm 6 13 mph 999mb 62f
8:40pm 8 13 mph 999.3mb 62f
8:30pm 9 15 mph 999.3mb 62f
8:20pm 7 11 mph 999.3mb 62f
8:10pm 7 13 mph 999.3mb 61f
8:00pm 9 15 mph 999.3mb 61f
7:50pm 8 15 mph 999.3mb 61f
7:40pm 9 15 mph 999.3mb 61f
7:30pm 8 14 mph 999.3mb 62f
7:20pm 9 14 mph 999.3mb 62f
7:10pm 10 15 mph 999.3mb 62f
7:00pm 11 18 mph 999mb 62f
6:50pm 14 20 mph 999mb 63f
6:40pm 15 21 mph 999mb 63f
6:30pm 11 17 mph 999.3mb 63f
6:20pm 9 17 mph 999.3mb 63f
6:10pm 11 22 mph 999.3mb 63f
6:00pm 9 17 mph 999.3mb 63f
5:50pm 13 18 mph 999.3mb 63f
5:40pm 14 22 mph 999.3mb 63f
5:30pm 9 15 mph 999.7mb 63f
5:20pm 9 17 mph 999.7mb 63f
5:10pm 13 17 mph 999.7mb 63f
5:00pm 8 17 mph 999.7mb 63f
4:50pm 9 16 mph 999.7mb 63f
4:40pm 11 21 mph 999.7mb 63f
4:30pm 8 17 mph 999.7mb 63f
4:20pm 9 16 mph 999.7mb 63f
4:10pm 11 20 mph 999.7mb 63f
4:00pm 11 21 mph 999.3mb 63f
3:50pm 13 20 mph 999.3mb 63f
3:40pm 10 24 mph 999.3mb 63f
3:30pm 13 23 mph 999.3mb 63f
3:20pm 15 25 mph 999.3mb 63f
3:10pm 10 25 mph 999mb 63f
3:00pm 11 24 mph 999mb 63f
2:50pm 16 22 mph 999.3mb 63f
2:40pm 11 22 mph 999.3mb 63f
2:30pm 10 16 mph 999.3mb 62f
2:20pm 11 20 mph 999.3mb 62f
2:10pm 10 17 mph 999.7mb 62f
2:00pm 11 17 mph 999.3mb 62f
1:50pm 10 16 mph 999.7mb 62f
1:40pm 10 20 mph 999.7mb 62f
1:30pm 13 22 mph 999.7mb 62f
1:20pm 11 23 mph 1000mb 62f
1:10pm 14 20 mph 1000mb 62f
1:00pm 13 21 mph 1000mb 62f
12:50pm 15 22 mph 1000mb 62f
12:40pm 11 23 mph 1000mb 62f
12:30pm 13 21 mph 1000mb 62f
12:20pm 13 20 mph 1000.3mb 62f
12:10pm 17 23 mph 1000.3mb 62f
12:00pm 11 29 mph 1000.7mb 62f
11:50am 17 23 mph 1000.7mb 62f
11:40am 16 23 mph 1000.7mb 62f
11:30am 11 20 mph 1000.7mb 62f
11:20am 13 18 mph 1001mb 62f
11:10am 14 21 mph 1001mb 62f
11:00am 14 18 mph 1001.4mb 61f
10:50am 13 18 mph 1001.4mb 61f
10:40am 11 17 mph 1001.7mb 60f
10:30am 11 21 mph 1001.7mb 60f
10:20am 14 20 mph 1001.7mb 60f
10:10am 7 14 mph 1001.7mb 59f
10:00am 11 18 mph 1001.7mb 58f
9:50am 8 18 mph 1002mb 59f
9:40am 13 22 mph 1001.7mb 59f
9:30am 10 17 mph 1001.7mb 59f
9:20am 9 16 mph 1002mb 59f
9:10am 10 17 mph 1002mb 59f
9:00am 8 17 mph 1002mb 59f
8:50am 10 16 mph 1002mb 59f
8:40am 9 14 mph 1002mb 59f
8:30am 7 14 mph 1002mb 58f
8:20am 8 15 mph 1002mb 58f
8:10am 6 9 mph 1002mb 58f
8:00am 7 11 mph 1002mb 58f
7:50am 7 11 mph 1001.7mb 58f
7:40am 6 9 mph 1002mb 58f
7:30am 7 11 mph 1002mb 58f
7:20am 8 10 mph 1002mb 58f
7:10am 7 13 mph 1002mb 58f
7:00am 7 10 mph 1002mb 58f
6:50am 6 8 mph 1002mb 58f
6:40am 5 7 mph 1002mb 58f
6:30am 6 9 mph 1002mb 57f
6:20am 6 8 mph 1002mb 57f
6:10am 6 10 mph 1002mb 57f
6:00am 6 11 mph 1002mb 57f
5:50am 6 10 mph 1002mb 57f
5:40am 7 10 mph 1002mb 57f
5:30am 7 9 mph 1002mb 57f
5:20am 7 11 mph 1002mb 56f
5:10am 6 9 mph 1002.4mb 56f
5:00am 6 8 mph 1002mb 56f
4:50am 6 7 mph 1002.4mb 56f
4:40am 5 6 mph 1002mb 56f
4:30am 3 6 mph 1002.4mb 56f
4:20am 3 5 mph 1002.4mb 56f
4:10am 3 6 mph 1002.4mb 56f
4:00am 5 7 mph 1002.4mb 56f